This demonstration page uses our WeatherBlox Daily Observations layout. Learn more.

Left ArrowRight Arrow

38.83388, -104.82136

Hourly Observations for March 25, 2018

Temp ( °F °C ) Dew Point ( °F °C ) Humidity (%) Winds ( mph kmh ) Pressure ( in mb ) Visibility ( mi km ) Precip ( " mm )
12:58 am 00:58 Clear 49 9.2 14 -9.9 25 25 NW 6 9 29.36 994 10 16 0.00 0.00
1:58 am 01:58 Clear 47 8.6 15 -9.7 27 27 Calm 29.33 993 10 16 0.00 0.00
2:58 am 02:58 Clear 46 7.9 15 -9.4 28 28 WNW 3 6 29.35 994 10 16 0.00 0.00
3:58 am 03:58 Clear 47 8.1 16 -8.9 29 29 WNW 9 15 29.34 994 10 16 0.00 0.00
4:58 am 04:58 Clear 49 9.3 15 -9.2 26 26 Calm 29.33 993 10 16 0.00 0.00
5:58 am 05:58 Clear 47 8.2 15 -9.6 27 27 Calm 29.35 994 10 16 0.00 0.00
6:58 am 06:58 Sunny 45 7.3 14 -9.8 29 29 SSW 3 6 29.39 995 10 16 0.00 0.00
7:58 am 07:58 Sunny 50 10.1 13 -10.5 22 22 SE 7 11 29.37 995 10 16 0.00 0.00
8:58 am 08:58 Sunny 53 11.7 12 -11.2 19 19 SE 9 15 29.34 994 10 16 0.00 0.00
9:42 am 09:42 Sunny 55 13 10 -12 16 16 ESE 14 22 29.32 993 10 16 0.00 0.00
9:58 am 09:58 Sunny 55 12.7 18 -8 23 23 ESE 15 24 29.32 993 10 16 0.00 0.00
10:02 am 10:02 Sunny 55 13 12 -11 18 18 SSE 13 20 29.32 993 10 16 0.00 0.00
10:58 am 10:58 Sunny 58 14.4 14 -10 18 18 SSE 13 20 29.32 993 10 16 0.00 0.00
10:59 am 10:59 Sunny 57 14 16 -9 20 20 SE 14 22 29.32 993 10 16 0.00 0.00
11:38 am 11:38 Sunny 59 15 16 -9 18 18 E 14 22 29.31 993 10 16 0.00 0.00
11:49 am 11:49 Sunny 59 15 9 -13 13 13 SE 22 35 29.29 992 10 16 0.00 0.00
11:58 am 11:58 Sunny 59 15.1 9 -12.7 14 14 ESE 16 26 29.30 992 10 16 0.00 0.00
12:58 pm 12:58 Sunny 59 14.9 11 -11.9 15 15 SSE 21 33 29.30 992 10 16 0.00 0.00
1:58 pm 13:58 Sunny 60 15.3 11 -11.4 15 15 SE 22 35 29.26 991 10 16 0.00 0.00
2:58 pm 14:58 Sunny 60 15.4 11 -11.7 14 14 SSE 22 35 29.25 991 10 16 0.00 0.00
3:58 pm 15:58 Mostly Sunny 59 15.1 6 -14.2 12 12 SE 20 31 29.21 989 10 16 0.00 0.00
4:58 pm 16:58 Mostly Cloudy 59 14.8 7 -14.1 12 12 SSE 16 26 29.21 989 10 16 0.00 0.00
5:58 pm 17:58 Sunny 58 14.5 0 -17.7 9 9 SSW 8 13 29.22 990 10 16 0.00 0.00
6:58 pm 18:58 Sunny 57 13.8 1 -17 10 10 SSE 8 13 29.25 991 10 16 0.00 0.00
7:58 pm 19:58 Mostly Clear 55 13 1 -17.5 10 10 S 16 26 29.24 990 10 16 0.00 0.00
8:58 pm 20:58 Mostly Clear 53 11.9 2 -16.7 12 12 SSE 16 26 29.28 991 10 16 0.00 0.00
9:07 pm 21:07 Clear 54 12 3 -16 13 13 SSW 13 20 29.29 992 10 16 0.00 0.00
9:58 pm 21:58 Clear 52 11.1 2 -16.4 13 13 Calm 29.31 992 10 16 0.00 0.00
10:58 pm 22:58 Clear 43 6 29 -1.7 58 58 NNW 5 7 29.35 994 10 16 0.00 0.00
11:58 pm 23:58 Clear 40 4.7 30 -0.9 67 67 NNW 13 20 29.34 994 10 16 0.00 0.00

Powered by AerisWeather